Location: Kumla
(59.1265°N, 15.1401°E)
Time: 17:03:59
(UTC+01:00)

A-11 Canister half - Pass Details

Date: 05 December 2023
Orbit: 1512 x 1687 km, 47.2° (Epoch: 25 February)

Event Time Altitude Azimuth Distance (km) Brightness Sun altitude
Rises 02:57:02 0° 251° (WSW) 4,790 - -40.6°
Reaches altitude 10° 03:00:17 10° 245° (WSW) 3,830 - -40.2°
Maximum altitude 03:09:13 42° 179° (S) 2,211 - -39.2°
Exits shadow 03:11:07 39° 154° (SSE) 2,320 9.8 -39.0°
Drops below altitude 10° 03:18:25 10° 113° (ESE) 3,937 11.5 -38.1°
Sets 03:21:48 0° 107° (ESE) 4,936 12.3 -37.7°
